EW8108 Weather Reports


time (UTC)temp
F
wind
direction
speed
knots
gust
knots
rain 1hr
in
rain 24hr
in
rain mn
in
humidity
%
barometer
mb
20220813150212 90 144 0.0 0.0 0.00 0.00 0.00 57 978.6
20220813145232 89 153 0.0 0.0 0.00 0.00 0.00 59 978.6
20220813144249 88 153 0.0 0.0 0.00 0.00 0.00 59 978.5
20220813143216 87 153 0.0 0.0 0.00 0.00 0.00 60 978.6
20220813141038 84 153 0.0 0.0 0.00 0.00 0.00 56 978.7
20220813133708 79 153 0.0 0.0 0.00 0.00 0.00 22 978.4
20220813132700 78 153 0.0 0.0 0.00 0.00 0.00 19 978.3
20220813131644 77 153 0.0 0.0 0.00 0.00 0.00 15 978.2
20220813124359 75 153 0.0 0.0 0.00 0.00 0.00 7 978.2
20220813122249 74 153 0.0 0.0 0.00 0.00 0.00 9 978.2
20220813120145 74 153 0.0 0.0 0.00 0.00 0.00 13 978.2
20220813115200 75 153 0.0 0.0 0.00 0.00 0.00 12 978.1
20220813113034 75 153 0.0 0.0 0.00 0.00 0.00 6 977.8
20220813110913 75 153 0.0 0.0 0.00 0.00 0.00 9 977.8
20220813101352 76 153 0.0 0.0 0.00 0.00 0.00 23 977.6
20220813100328 76 153 0.0 0.0 0.00 0.00 0.00 23 977.7
20220813095305 76 153 0.0 0.0 0.00 0.00 0.00 24 977.5
20220813093134 76 153 0.0 0.0 0.00 0.00 0.00 28 977.3
20220813092102 76 153 0.0 0.0 0.00 0.00 0.00 32 977.4
20220813085933 77 153 0.0 0.0 0.00 0.00 0.00 34 977.4
20220813082614 78 153 0.0 0.0 0.00 0.00 0.00 35 977.4
20220813081620 78 153 0.0 0.0 0.00 0.00 0.00 36 977.4
20220813073055 79 153 0.0 0.0 0.00 0.00 0.00 41 977.4
20220813065729 79 153 0.0 0.0 0.00 0.00 0.00 48 977.4
20220813063618 79 153 0.0 0.0 0.00 0.00 0.00 49 977.4
20220813061438 79 153 0.0 0.0 0.00 0.00 0.00 51 977.5
20220813054102 80 153 0.0 0.0 0.00 0.00 0.00 55 977.5
20220813053125 80 153 0.0 0.0 0.00 0.00 0.00 56 977.4
20220813052129 81 153 0.0 0.0 0.00 0.00 0.00 57 977.4
20220813051131 81 153 0.0 0.0 0.00 0.00 0.00 58 977.5
20220813044944 82 153 0.0 0.0 0.00 0.00 0.00 59 977.5
20220813042810 83 153 0.0 0.0 0.00 0.00 0.00 60 977.5
20220813041834 83 153 0.0 0.0 0.00 0.00 0.00 61 977.5
20220813040808 84 153 0.0 0.0 0.00 0.00 0.00 61 977.4
20220813035751 84 153 0.0 0.0 0.00 0.00 0.00 61 977.4
20220813033620 85 153 0.0 0.0 0.00 0.00 0.00 60 977.2
20220813032638 85 153 0.0 0.0 0.00 0.00 0.00 60 977.2
20220813030445 86 153 0.0 0.0 0.00 0.00 0.00 60 977.0
20220813025432 86 153 0.0 0.0 0.00 0.00 0.00 60 976.8
20220813024447 86 156 0.0 0.0 0.00 0.00 0.00 59 976.6
20220813022241 87 136 0.0 0.0 0.00 0.00 0.00 58 976.2
20220813020133 88 132 0.0 0.0 0.00 0.00 0.00 56 975.9
20220813014000 88 117 0.0 0.0 0.00 0.00 0.00 56 975.7
20220813013020 89 74 0.0 0.0 0.00 0.00 0.00 55 975.6
20220813011951 90 149 0.0 2.6 0.00 0.00 0.00 53 975.5
20220813003556 94 132 0.0 0.0 0.00 0.00 0.00 43 974.8
20220813001444 95 109 0.0 1.7 0.00 0.00 0.00 42 974.7
20220812231908 97 190 0.0 0.9 0.00 0.00 0.00 39 974.7
20220812230855 98 150 0.0 0.0 0.00 0.00 0.00 38 974.8
20220812225821 98 165 0.0 0.9 0.00 0.00 0.00 38 974.8
20220812220300 97 180 0.0 1.7 0.00 0.00 0.00 38 975.0
20220812213046 99 254 0.0 4.3 0.00 0.00 0.00 36 975.3
20220812204642 98 182 0.0 1.7 0.00 0.00 0.00 41 975.5
20220812203657 98 151 0.0 0.0 0.00 0.00 0.00 39 975.7
20220812201451 101 166 0.0 3.5 0.00 0.00 0.00 36 975.8
20220812195340 98 192 0.0 0.0 0.00 0.00 0.00 39 976.1
20220812194402 100 178 0.0 0.9 0.00 0.00 0.00 38 976.2
20220812192209 100 182 0.0 1.7 0.00 0.00 0.00 37 976.6
20220812191149 99 160 0.0 0.9 0.00 0.00 0.00 39 976.7
20220812185012 99 125 0.0 5.2 0.00 0.00 0.00 39 977.0
20220812184036 99 313 0.0 5.2 0.00 0.00 0.00 38 977.1
20220812180638 95 210 0.0 0.0 0.00 0.00 0.00 45 977.4
20220812172115 94 167 0.0 0.0 0.00 0.00 0.00 46 977.9
20220812162525 96 249 0.0 0.0 0.00 0.00 0.00 47 978.3
20220812160358 94 238 0.0 0.0 0.00 0.00 0.00 49 978.3
20220812154257 94 238 0.0 0.0 0.00 0.00 0.00 50 978.4